Location: Newark
(50.2306°N, 14.0814°E)
Time: 02:07:08
(UTC+00:00)

N. Korean satellite - Pass Details

Date: 13 December 2019
Orbit: 454 x 507 km, 97.2° (Epoch: 23 January)

Event Time Altitude Azimuth Distance (km) Brightness Sun altitude
Rises 05:15:41 0° 10° (N) 2,550 10.1 -14.8°
Reaches altitude 10° 05:17:47 10° 8° (N) 1,657 9.2 -14.5°
Maximum altitude 05:21:19 68° 286° (WNW) 513 6.4 -14.0°
Drops below altitude 10° 05:24:45 10° 203° (SSW) 1,614 9.2 -13.4°
Sets 05:26:46 0° 201° (SSW) 2,478 10.2 -13.1°
